This is the latest recevied weather packets stored in our database for station/object WE8L. If no packets are shown the sender has not sent any weather packets the latest 10 day(s).
| Time | Temp. | Humidity | Pressure | Rain* | Wind** | Luminosity | Snow |
|---|---|---|---|---|---|---|---|
| 1777527411 | 8.33° C | 82% | 1017.2 hPa | 0 mm | - | 0 W/m² | - |
| 1777527107 | 8.89° C | 81% | 1017.4 hPa | 0 mm | - | 0 W/m² | - |
| 1777526803 | 8.89° C | 80% | 1017.4 hPa | 0 mm | - | 0 W/m² | - |
| 1777526498 | 8.89° C | 79% | 1017.4 hPa | 0 mm | - | 0 W/m² | - |
| 1777526193 | 8.89° C | 78% | 1017.3 hPa | 0 mm | - | 0 W/m² | - |
| 1777525889 | 8.89° C | 78% | 1017.4 hPa | 0 mm | - | 0 W/m² | - |
| 1777525587 | 8.89° C | 81% | 1017.4 hPa | 0 mm | - | 0 W/m² | - |
| 1777525285 | 9.44° C | 80% | 1017.3 hPa | 0 mm | - | 0 W/m² | - |
| 1777524980 | 9.44° C | 79% | 1017.1 hPa | 0 mm | - | 0 W/m² | - |
| 1777524677 | 9.44° C | 78% | 1017.1 hPa | 0 mm | - | 0 W/m² | - |
| 1777524376 | 10° C | 75% | 1017 hPa | 0 mm | - | 0 W/m² | - |
| 1777524076 | 10° C | 74% | 1017 hPa | 0 mm | - | 0 W/m² | - |
| 1777523774 | 10° C | 73% | 1016.9 hPa | 0 mm | - | 0 W/m² | - |
| 1777523470 | 10° C | 73% | 1016.9 hPa | 0 mm | - | 0 W/m² | - |
| 1777523166 | 10° C | 72% | 1016.7 hPa | 0 mm | - | 0 W/m² | - |
| 1777522862 | 10° C | 72% | 1016.7 hPa | 0 mm | - | 0 W/m² | - |
| 1777522559 | 10.56° C | 72% | 1016.9 hPa | 0 mm | - | 0 W/m² | - |
| 1777522256 | 10.56° C | 72% | 1016.7 hPa | 0 mm | - | 0 W/m² | - |
| 1777521953 | 10.56° C | 71% | 1016.6 hPa | 0 mm | - | 0 W/m² | - |
| 1777521650 | 10.56° C | 72% | 1016.9 hPa | 0 mm | - | 0 W/m² | - |
| 1777521347 | 10.56° C | 72% | 1017 hPa | 0 mm | - | 0 W/m² | - |
| 1777521044 | 11.11° C | 74% | 1016.9 hPa | 0 mm | - | 0 W/m² | - |
| 1777520741 | 11.11° C | 73% | 1016.7 hPa | 0 mm | - | 0 W/m² | - |
| 1777520438 | 11.11° C | 75% | 1016.6 hPa | 0 mm | - | 0 W/m² | - |
| 1777520135 | 11.11° C | 74% | 1016.9 hPa | 0 mm | - | 0 W/m² | - |
* Rain latest hour (hover to see other rain measurements)
** Current wind speed in m/s (hover to see current wind gust speed)